• In Hungary
  • List of Countries
  • For 7 days
  • Water Temperature
  • Satellite Maps
  • Weather Map
  • News
  • Weather Widgets
  • user-avatar
    Login

    Hourly Weather Zarucheynyy

    Today, 22 July, Sunday

    Time Temperature Precipitation Wind Pressure Humidity
    00:00 +16°C° 0 mm 1 mps 757 mmHg 74%
    01:00 +16°C° 0 mm 1 mps 758 mmHg 77%
    02:00 +15°C° 0 mm 1 mps 758 mmHg 79%
    03:00 +15°C° 0 mm 1 mps 758 mmHg 84%
    04:00 +16°C° 0 mm 1 mps 758 mmHg 78%
    05:00 +18°C° 0 mm 2 mps 758 mmHg 72%
    06:00 +19°C° 0 mm 2 mps 758 mmHg 66%
    07:00 +21°C° 0 mm 2 mps 758 mmHg 57%
    08:00 +24°C° 0 mm 3 mps 758 mmHg 49%
    09:00 +26°C° 0 mm 3 mps 758 mmHg 40%
    10:00 +27°C° 0 mm 3 mps 758 mmHg 38%
    11:00 +27°C° 0 mm 3 mps 758 mmHg 35%
    12:00 +28°C° 0 mm 3 mps 758 mmHg 33%
    13:00 +28°C° 0 mm 3 mps 757 mmHg 32%
    14:00 +29°C° 0 mm 3 mps 757 mmHg 32%
    15:00 +28°C° 0 mm 2 mps 757 mmHg 31%
    16:00 +28°C° 0 mm 2 mps 757 mmHg 35%
    17:00 +27°C° 0 mm 2 mps 757 mmHg 38%
    18:00 +27°C° 0 mm 2 mps 757 mmHg 41%
    19:00 +24°C° 0 mm 2 mps 757 mmHg 49%
    20:00 +21°C° 0 mm 2 mps 757 mmHg 56%
    21:00 +19°C° 0 mm 1 mps 757 mmHg 63%
    22:00 +18°C° 0 mm 1 mps 757 mmHg 66%
    23:00 +16°C° 0 mm 1 mps 757 mmHg 68%

    Tomorrow, 23 July, Monday

    Time Temperature Precipitation Wind Pressure Humidity
    00:00 +15°C° 0 mm 1 mps 758 mmHg 71%
    01:00 +15°C° 0 mm 1 mps 758 mmHg 73%
    02:00 +14°C° 0 mm 1 mps 758 mmHg 76%
    03:00 +14°C° 0 mm 1 mps 758 mmHg 78%
    04:00 +15°C° 0 mm 1 mps 758 mmHg 73%
    05:00 +18°C° 0 mm 1 mps 758 mmHg 69%
    06:00 +19°C° 0 mm 1 mps 758 mmHg 64%
    07:00 +20°C° 0 mm 2 mps 758 mmHg 58%
    08:00 +23°C° 0 mm 2 mps 758 mmHg 51%
    09:00 +25°C° 0 mm 2 mps 758 mmHg 45%
    10:00 +26°C° 0 mm 2 mps 758 mmHg 41%
    11:00 +27°C° 0 mm 2 mps 758 mmHg 37%
    12:00 +28°C° 0 mm 2 mps 758 mmHg 33%
    13:00 +28°C° 0 mm 2 mps 757 mmHg 33%
    14:00 +29°C° 0 mm 2 mps 757 mmHg 32%
    15:00 +29°C° 0 mm 2 mps 757 mmHg 31%
    16:00 +28°C° 0 mm 2 mps 757 mmHg 35%
    17:00 +28°C° 0 mm 2 mps 757 mmHg 39%
    18:00 +27°C° 0 mm 1 mps 756 mmHg 42%
    19:00 +25°C° 0 mm 1 mps 757 mmHg 49%
    20:00 +22°C° 0 mm 1 mps 757 mmHg 56%
    21:00 +20°C° 0 mm 1 mps 757 mmHg 63%
    22:00 +19°C° 0 mm 1 mps 757 mmHg 66%
    23:00 +18°C° 0 mm 1 mps 758 mmHg 70%

    Day after tomorrow, 24 July, Tuesday

    Time Temperature Precipitation Wind Pressure Humidity
    00:00 +16°C° 0 mm 1 mps 758 mmHg 73%
    01:00 +15°C° 0 mm 1 mps 758 mmHg 75%
    02:00 +15°C° 0 mm 1 mps 758 mmHg 77%
    03:00 +14°C° 0 mm 1 mps 758 mmHg 80%
    04:00 +16°C° 0 mm 1 mps 758 mmHg 74%
    05:00 +19°C° 0 mm 1 mps 759 mmHg 68%
    06:00 +20°C° 0 mm 1 mps 759 mmHg 63%
    07:00 +22°C° 0 mm 1 mps 759 mmHg 56%
    08:00 +24°C° 0 mm 1 mps 759 mmHg 48%
    09:00 +26°C° 0 mm 2 mps 759 mmHg 41%
    10:00 +27°C° 0 mm 2 mps 759 mmHg 38%
    11:00 +28°C° 0 mm 2 mps 759 mmHg 34%
    12:00 +29°C° 0 mm 2 mps 759 mmHg 31%
    13:00 +30°C° 0 mm 2 mps 758 mmHg 30%
    14:00 +30°C° 0 mm 2 mps 758 mmHg 29%
    15:00 +30°C° 0 mm 2 mps 758 mmHg 28%
    16:00 +29°C° 0 mm 2 mps 758 mmHg 33%
    17:00 +29°C° 0 mm 1 mps 758 mmHg 38%
    18:00 +28°C° 0 mm 1 mps 758 mmHg 43%
    19:00 +26°C° 0 mm 1 mps 758 mmHg 49%
    20:00 +23°C° 0 mm 1 mps 758 mmHg 54%
    21:00 +21°C° 0 mm 1 mps 759 mmHg 59%
    22:00 +20°C° 0 mm 1 mps 759 mmHg 62%
    23:00 +20°C° 0 mm 1 mps 759 mmHg 65%

    25 July, Wednesday

    Time Temperature Precipitation Wind Pressure Humidity
    00:00 +19°C° 0 mm 1 mps 759 mmHg 68%
    01:00 +19°C° 0 mm 1 mps 759 mmHg 70%
    02:00 +18°C° 0 mm 1 mps 760 mmHg 72%
    03:00 +18°C° 0 mm 1 mps 760 mmHg 74%
    04:00 +19°C° 0 mm 1 mps 760 mmHg 72%
    05:00 +20°C° 0 mm 1 mps 760 mmHg 70%
    06:00 +21°C° 0 mm 1 mps 760 mmHg 68%
    07:00 +23°C° 0 mm 1 mps 760 mmHg 62%
    08:00 +24°C° 0 mm 1 mps 761 mmHg 55%
    09:00 +26°C° 0 mm 1 mps 761 mmHg 49%
    10:00 +27°C° 0 mm 2 mps 761 mmHg 47%
    11:00 +28°C° 0 mm 2 mps 761 mmHg 44%
    12:00 +28°C° 0 mm 2 mps 761 mmHg 41%
    13:00 +28°C° 0 mm 2 mps 760 mmHg 42%
    14:00 +29°C° 0 mm 2 mps 760 mmHg 42%
    15:00 +29°C° 0 mm 2 mps 760 mmHg 43%
    16:00 +29°C° 0 mm 2 mps 760 mmHg 45%
    17:00 +28°C° 0 mm 2 mps 760 mmHg 48%
    18:00 +28°C° 0 mm 1 mps 760 mmHg 51%
    19:00 +26°C° 0 mm 1 mps 760 mmHg 57%
    20:00 +24°C° 0 mm 1 mps 760 mmHg 64%
    21:00 +22°C° 0 mm 1 mps 760 mmHg 70%
    22:00 +22°C° 0.1 mm 1 mps 760 mmHg 71%
    23:00 +21°C° 0.1 mm 1 mps 760 mmHg 73%

    26 July, Thursday

    Time Temperature Precipitation Wind Pressure Humidity
    00:00 +21°C° 0.1 mm 1 mps 761 mmHg 74%
    01:00 +21°C° 0.2 mm 1 mps 761 mmHg 79%
    02:00 +20°C° 0.2 mm 1 mps 761 mmHg 84%
    03:00 +19°C° 0.2 mm 1 mps 761 mmHg 89%
    04:00 +20°C° 0.2 mm 1 mps 761 mmHg 87%
    05:00 +21°C° 0.2 mm 1 mps 761 mmHg 86%
    06:00 +22°C° 0.2 mm 1 mps 761 mmHg 85%
    07:00 +23°C° 0.1 mm 1 mps 761 mmHg 82%
    08:00 +24°C° 0.1 mm 1 mps 761 mmHg 78%
    09:00 +24°C° 0.1 mm 1 mps 761 mmHg 75%
    10:00 +26°C° 0.4 mm 2 mps 761 mmHg 67%
    11:00 +27°C° 0.4 mm 2 mps 761 mmHg 59%
    12:00 +28°C° 0.4 mm 2 mps 761 mmHg 52%
    13:00 +28°C° 0 mm 2 mps 761 mmHg 51%
    14:00 +29°C° 0 mm 2 mps 761 mmHg 49%
    15:00 +29°C° 0 mm 1 mps 761 mmHg 48%
    16:00 +28°C° 0 mm 1 mps 761 mmHg 52%
    17:00 +27°C° 0 mm 1 mps 761 mmHg 57%
    18:00 +27°C° 0 mm 1 mps 760 mmHg 61%
    19:00 +25°C° 0.1 mm 1 mps 760 mmHg 67%
    20:00 +23°C° 0.1 mm 1 mps 760 mmHg 73%
    21:00 +22°C° 0.1 mm 1 mps 760 mmHg 79%
    22:00 +21°C° 0.7 mm 1 mps 760 mmHg 83%
    23:00 +21°C° 0.7 mm 1 mps 761 mmHg 86%

    27 July, Friday

    Time Temperature Precipitation Wind Pressure Humidity
    00:00 +20°C° 0.7 mm 1 mps 761 mmHg 89%
    01:00 +20°C° 0.1 mm 1 mps 761 mmHg 90%
    02:00 +20°C° 0.1 mm 1 mps 761 mmHg 91%
    03:00 +20°C° 0.1 mm 1 mps 761 mmHg 93%
    04:00 +21°C° 0 mm 1 mps 761 mmHg 89%
    05:00 +22°C° 0 mm 1 mps 761 mmHg 86%
    06:00 +23°C° 0 mm 1 mps 761 mmHg 83%
    07:00 +25°C° 0.1 mm 1 mps 761 mmHg 73%
    08:00 +27°C° 0.1 mm 1 mps 761 mmHg 64%
    09:00 +29°C° 0.1 mm 1 mps 761 mmHg 54%
    10:00 +30°C° 0.3 mm 1 mps 760 mmHg 50%
    11:00 +31°C° 0.3 mm 1 mps 760 mmHg 47%
    12:00 +31°C° 0.3 mm 1 mps 760 mmHg 44%
    13:00 +31°C° 0 mm 1 mps 760 mmHg 45%
    14:00 +31°C° 0 mm 1 mps 760 mmHg 47%
    15:00 +30°C° 0 mm 1 mps 760 mmHg 49%
    16:00 +30°C° 0 mm 1 mps 760 mmHg 52%
    17:00 +29°C° 0 mm 1 mps 760 mmHg 56%
    18:00 +26°C° 0 mm 0 mps 760 mmHg 60%
    19:00 +25°C° 0.1 mm 0 mps 760 mmHg 63%
    20:00 +24°C° 0.1 mm 0 mps 760 mmHg 67%
    21:00 +23°C° 0.1 mm 0 mps 760 mmHg 70%
    22:00 +22°C° 0.6 mm 0 mps 760 mmHg 75%
    23:00 +23°C° 0.6 mm 1 mps 760 mmHg 79%
    Show more